Regional Weather Roundup
Issued by NWS

Home | Current Version | Previous Version | Text Only | Print | Product List | Glossary Off
Versions: 1 2 3 4 5 6 7 8 9 10 11 12 13 14 15 16 17 18 19 20 21 22 23 24 25 26 27 28

000
ASUS45 KSLC 280910
RWRUT

UTAH REGIONAL WEATHER ROUNDUP
NATIONAL WEATHER SERVICE SALT LAKE CITY UT
300 AM MDT THU JUL 28 2016

UTZ001>011-023>025-281000-

NORTHERN UTAH

CITY           SKY/WX    TMP DP  RH WIND       PRES   REMARKS
BRIGHAM CITY     N/A     67  44  43 CALM      30.04S
HILL AFB       CLEAR     72  33  23 E17       30.07S
LOGAN          CLEAR     66  46  48 SW3       30.07S
OGDEN          CLEAR     72  34  24 S10       30.03F
PROVO AIRPORT  CLEAR     68  39  34 CALM      30.07S
SALT LAKE CITY CLEAR     80  33  18 SE8       30.02S
VERNAL         CLEAR     65  32  29 W6        30.13S
WENDOVER       CLEAR     82  28  14 NE3       30.04S
HEBER CITY     CLEAR     52  37  58 NE3       30.19R

$$

UTZ012>022-026-027-281000-

SOUTHERN/CENTRAL UTAH

CITY           SKY/WX    TMP DP  RH WIND       PRES   REMARKS
BLANDING       CLEAR     72  31  22 N8        30.23S
BRYCE CANYON   PTCLDY    56  30  37 W10       30.35F
CEDAR CITY     CLEAR     73  34  23 SE5       30.15S
DELTA          CLEAR     64  28  25 E5        30.06S
MILFORD        CLEAR     69  23  17 S5        30.09R
MOAB/CYNLANDS  CLEAR     73  26  17 CALM      30.03F
PRICE          CLEAR     68  21  16 NE6       30.17F
ST GEORGE      SUNNY     88  39  18 SE6       29.92S

$$

REGIONAL REPORTS     COLORADO/ARIZONA

CITY           SKY/WX    TMP DP  RH WIND       PRES   REMARKS
CRAIG, CO      CLOUDY    47  36  65 CALM      30.23F
GRAND JUNCTION CLEAR     73  31  21 E8        30.08F
RIFLE          CLEAR     62  32  32 E5        30.19R
MONTROSE       CLEAR     64  38  38 SE9       30.21R
CORTEZ         CLEAR     58  37  45 NE7       30.19S
PAGE, AZ       MOCLDY    83  32  16 CALM      30.02R
GRAND CANYON   PTCLDY    58  42  55 CALM      30.27S HAZE
KINGMAN        PTCLDY    81  47  30 CALM      29.97S
FLAGSTAFF      CLEAR     59  46  62 CALM      30.28F

$$

REGIONAL REPORTS    NEVADA/IDAHO/WYOMING

CITY           SKY/WX    TMP DP  RH WIND       PRES   REMARKS
LAS VEGAS, NV  PTCLDY    98  44  15 S7        29.78F HX  94
ELY            CLEAR     58  25  28 S9        30.22S
ELKO           CLEAR     65  28  24 E7        30.14S
POCATELLO, ID  CLEAR     58  42  55 S9        30.10R
BURLEY         CLEAR     62  46  55 CALM      30.06R
EVANSTON, WY   CLOUDY    62  25  24 S6        30.29S
ROCK SPRINGS   CLOUDY    68  21  16 CALM      30.25S
KEMMERER         N/A     54  28  37 N12       30.30S

$$




USA.gov is the U.S. government's official web portal to all federal, state and local government web resources and services.